Tracking 19854 objects as of 22-Sep-2019
HD Live streaming from Space Station
objects crossing your sky now

METEOR 2-11 DEB

Track METEOR 2-11 DEB now!
10-day predictions


NORAD ID: 40317
Int'l Code: 1984-072C
Perigee: 928.3 km
Apogee: 951.8 km
Inclination: 82.5 °
Period: 103.7 minutes
Semi major axis: 7311 km
RCS: Unknown
Launch date: July 5, 1984
Source: Commonwealth of Independent States (former USSR) (CIS)
Launch site: PLESETSK MISSILE AND SPACE COMPLEX (PKMTR)

Note: This is SATELLITE DEBRIS
aabbcc
Your satellite tracking list
Your tracking list is empty




NASA's NSSDC Master Catalog

Two Line Element Set (TLE):
1 40317U 84072C   19265.07644211  .00001332  00000-0  10910-2 0  9996
2 40317  82.5292 194.2356 0016017 208.7457 151.2825 13.88780010243596
Source of the keplerian elements: AFSPC